Skip Page Navigation
NASA JPL Caltech
NASA Logo - Jet Propulsion Laboratory + View the NASA Portal
+ Near-Earth Object (NEO) Program
Search JPL
JPL Home Earth Solar System Stars & Galaxies Technology
JPL Solar System Dynamics
BODIES ORBITS EPHEMERIDES TOOLS PHYSICAL DATA DISCOVERY FAQ SITE MAP
JPL Small-Body Database Browser
Search: [ help ]  
11325 Slavicky (1995 SG)
Classification: Main-belt Asteroid          SPK-ID: 2011325
Ephemeris | Orbit Diagram | Orbital Elements | Physical Parameters | Discovery Circumstances | Close-Approach Data ]

[ show orbit diagram ]
Orbital Elements at Epoch 2457000.5 (2014-Dec-09.0) TDB
Reference: JPL 10 (heliocentric ecliptic J2000)
 Element Value Uncertainty (1-sigma)   Units 
e .1354761561118999 4.5637e-08  
a 2.541232545571312 1.6533e-08 AU
q 2.196956128510852 1.152e-07 AU
i 1.351628563899372 4.9226e-06 deg
node 236.1717954514687 0.00029135 deg
peri 166.5030203512663 0.00029283 deg
M 235.8753894418065 3.0579e-05 deg
tp 2457510.676485928065
(2016-May-02.17648593)
0.00012816 JED
period 1479.670583522164
4.05
1.444e-05
3.953e-08
d
yr
n .2432973960616738 2.3743e-09 deg/d
Q 2.885508962631772 1.8773e-08 AU
  Orbit Determination Parameters
   # obs. used (total)      719  
   data-arc span      8289 days (22.69 yr)  
   first obs. used      1991-10-08  
   last obs. used      2014-06-18  
   planetary ephem.      DE431  
   SB-pert. ephem.      SB431-BIG16  
   condition code      0  
   fit RMS      .5604  
   data source      ORB  
   producer      Otto Matic  
   solution date      2015-Jun-04 16:11:29  

Additional Information
 Earth MOID = 1.20527 AU 
 T_jup = 3.432 
[ show covariance matrix ]

Ephemeris | Orbit Diagram | Orbital Elements | Physical Parameters | Discovery Circumstances | Close-Approach Data ]

Physical Parameter Table
Parameter Symbol Value Units Sigma Reference Notes
absolute magnitude H 15.4 mag n/a MPO299045  

11325 Slavický           Discovered 1995 Sept. 17 by L. Šarounová at Ondřejov.
Klement Slavický (1910-1999) was an outstanding Czech composer, whose personal musical expression was rooted in the folk-music culture of Moravia. He was also appreciated for his life-long high moral standards. In 1985 Slavický was awarded with the Golden Medal of the United Nations for his fourth Symphonietta.
NOTE: some special characters may not display properly (any characters within {} are an attempt to place the proper accent above a character)
Reference: 19991123/MPCPages.arcLast Updated: 2010-06-11

[ show close-approach data ]
Ephemeris | Orbit Diagram | Orbital Elements | Physical Parameters | Discovery Circumstances | Close-Approach Data ]
ABOUT SSD CREDITS/AWARDS PRIVACY/COPYRIGHT GLOSSARY LINKS
FirstGov 2015-Sep-01 01:51 UT
(server date/time)  
NASA Home Page
Site Manager:   Ryan S. Park
Webmaster  Alan B. Chamberlin